Skip Page Navigation
NASA JPL Caltech
NASA Logo - Jet Propulsion Laboratory + View the NASA Portal
+ Center for Near-Earth Object Studies
JPL Home Earth Solar System Stars & Galaxies Technology
JPL Solar System Dynamics
BODIES ORBITS EPHEMERIDES TOOLS PHYSICAL DATA DISCOVERY FAQ SITE MAP
IMPORTANT: The SSD Announcement email list is now available. Major changes are coming in the near future, including possible hostname and/or URL changes. To be notified of such changes, subscribe to this email list.

Please visit this page for more details.


JPL Small-Body Database Browser
Search: [ help ]  
160070 (2000 CU98)
Classification: Main-belt Asteroid          SPK-ID: 2160070
Ephemeris | Orbit Diagram | Orbital Elements | Mission Design | Physical Parameters | Discovery Circumstances | Close-Approach Data ]

[ hide orbit diagram ]

For accurate long-term ephemerides, please instead use our Horizons system.This orbit viewer was implemented using two-body methods, and hence should not be used for determining accurate long-term trajectories (over several years or decades) or planetary encounter circumstances.


[ revert to old Java-based viewer ]

Orbital Elements at Epoch 2458600.5 (2019-Apr-27.0) TDB
Reference: JPL 15 (heliocentric ecliptic J2000)
 Element Value Uncertainty (1-sigma)   Units 
e .07053823854572601 5.6878e-08  
a 3.159878570256994 3.4257e-08 au
q 2.936986301892679 1.7711e-07 au
i 19.39513375225484 9.4607e-06 deg
node 142.489552953046 1.5674e-05 deg
peri 128.8756578471266 6.3354e-05 deg
M 27.79396869503123 5.9791e-05 deg
tp 2458442.101129460406
(2018-Nov-19.60112946)
0.00034092 TDB
period 2051.653508714215
5.62
3.3364e-05
9.135e-08
d
yr
n .1754682252490161 2.8535e-09 deg/d
Q 3.38277083862131 3.6674e-08 au
  Orbit Determination Parameters
   # obs. used (total)      317  
   data-arc span      7211 days (19.74 yr)  
   first obs. used      2000-02-04  
   last obs. used      2019-11-02  
   planetary ephem.      DE431  
   SB-pert. ephem.      SB431-N16  
   condition code      0  
   norm. resid. RMS      .61843  
   source      ORB  
   producer      Otto Matic  
   solution date      2019-Dec-04 13:49:30  

Additional Information
 Earth MOID = 1.95468 au 
 Jupiter MOID = 1.94576 au 
 T_jup = 3.113 
[ show covariance matrix ]

Ephemeris | Orbit Diagram | Orbital Elements | Mission Design | Physical Parameters | Discovery Circumstances | Close-Approach Data ]

Physical Parameter Table
Parameter Symbol Value Units Sigma Reference Notes
absolute magnitude H 15.1   n/a MPO436807  
diameter diameter 6.240 km 0.185 urn:nasa:pds:neowise_diameters_albedos::2.0[mainbelt] (http://adsabs.harvard.edu/abs/2011ApJ...741...68M)  
geometric albedo albedo 0.041   0.007 urn:nasa:pds:neowise_diameters_albedos::2.0[mainbelt] (http://adsabs.harvard.edu/abs/2011ApJ...741...68M)  

160070 (2000 CU98)          Discovered 2000-Feb-08 by Spacewatch at Kitt Peak
Reference: 20070730/Numbers.arcLast Updated: 2007-08-06

[ show close-approach data ]
Alternate Designations
 2000 CU98 = 2002 NT37 
Ephemeris | Orbit Diagram | Orbital Elements | Mission Design | Physical Parameters | Discovery Circumstances | Close-Approach Data ]
ABOUT SSD CREDITS/AWARDS PRIVACY/COPYRIGHT GLOSSARY LINKS
FirstGov 2019-Dec-08 19:23 UT
(server date/time)  
NASA Home Page
Site Manager:   Ryan S. Park
Webmaster  Alan B. Chamberlin